Location: Northcutt
(34.7304°N, 84.4305°W)
Time: 08:28:55
(UTC+00:00)

S-56A Canister/Altair - Pass Details

Date: 05 October 2022
Orbit: 638 x 2494 km, 38.9° (Epoch: 08 December)

Event Time Altitude Azimuth Distance (km) Brightness Sun altitude
Rises 10:16:51 0° 287° (WNW) 4,940 - -17.0°
Reaches altitude 10° 10:20:37 10° 289° (WNW) 3,648 - -16.2°
Exits shadow 10:22:38 17° 289° (WNW) 2,948 9.9 -15.8°
Maximum altitude 10:29:25 86° 16° (NNE) 1,077 8.2 -14.4°
Drops below altitude 10° 10:35:11 10° 108° (ESE) 2,450 11.3 -13.2°
Sets 10:37:17 0° 108° (ESE) 3,239 12.2 -12.8°
